Regional Weather Roundup
Issued by NWS

Home | Current Version | Previous Version | Text Only | Print | Product List | Glossary Off
Versions: 1 2 3 4 5 6 7 8 9 10 11 12 13 14 15 16 17 18 19 20 21 22 23 24 25 26 27 28 29 30 31 32 33 34 35 36 37 38 39 40 41 42 43 44 45 46 47 48 49 50

384
ASUS43 KDMX 240808
RWRIA

WEATHER ROUNDUP FOR IOWA
NATIONAL WEATHER SERVICE DES MOINES IA
300 AM CDT TUE MAY 24 2016

NOTE: "FAIR" INDICATES FEW OR NO CLOUDS BELOW 12,000 FEET WITH NO
SIGNIFICANT WEATHER AND/OR OBSTRUCTIONS TO VISIBILITY.

* - THESE STATIONS ARE NOT NWS STATIONS...THUS NOT UNDER NWS
QUALITY CONTROL.  THEY ALSO DO NOT REPORT WEATHER SUCH
AS PRECIPITATION OR FOG.

IAZ001>003-012>014-020>022-031>034-043>046-240900-
   NORTHWEST IOWA

CITY           SKY/WX    TMP DP  RH WIND       PRES   REMARKS
CARROLL *      RAIN      63  61  94 S15       29.85F
CHEROKEE *     CLOUDY    61  61 100 S5        29.82R
DENISON *      CLEAR     63  59  88 S9        29.80R
LE MARS *      CLEAR     63  61  94 S5        29.79F
ORANGE CITY *  CLEAR     63  61  94 CALM      29.80S
SHELDON *      CLEAR     63  61  94 S9        29.79F
SIOUX CITY       N/A     63  60  90 SE7       29.79F
SPENCER        CLOUDY    63  59  87 SW7       29.81S
STORM LAKE *   CLEAR     63  59  88 SW13      29.83R
$$

IAZ055>058-069>071-079>083-090>094-240900-
   SOUTHWEST IOWA

CITY           SKY/WX    TMP DP  RH WIND       PRES   REMARKS
ATLANTIC *     CLOUDY    63  63 100 NE6       29.87R
AUDUBON *      LGT RAIN  63  59  88 CALM      29.88F
CLARINDA *       N/A     64  63  94 MISG      29.88F
COUNCIL BLFS * PTCLDY    59  59 100 SE5       29.86R
CRESTON *      CLOUDY    63  61  94 CALM      29.91R
HARLAN  *        N/A    N/A N/A N/A MISG        N/A
LAMONI         CLOUDY    65  60  84 S8        29.89R
RED OAK *      CLEAR     64  61  88 S6        29.86R
SHENANDOAH *   CLOUDY    64  63  94 S7        29.86R
$$

IAZ047>049-059>061-072>074-084-240900-
   CENTRAL IOWA

CITY           SKY/WX    TMP DP  RH WIND       PRES   REMARKS
AMES           RAIN      64  63  96 W15       29.89R FOG
ANKENY *       CLOUDY    64  64 100 W5        29.89R
BOONE *        LGT RAIN  63  63 100 W16G22    29.89R
CHARITON *     CLOUDY    66  61  82 SW5       29.89R
DES MOINES     CLOUDY    66  62  87 W5        29.90R
GRINNELL*      CLOUDY    66  55  68 S8        29.90R
KNOXVILLE *    CLOUDY    66  59  77 CALM      29.88R
MARSHALLTOWN   LGT RAIN  62  55  77 SW6       29.88R
NEWTON *       MOCLDY    64  64 100 SW8       29.89R
PELLA *        MOCLDY    66  57  72 SW3       29.90R
PERRY *        RAIN      64  63  94 W10       29.91R
$$

IAZ004>006-015-016-023>025-035-036-240900-
   NORTH CENTRAL IOWA

CITY           SKY/WX    TMP DP  RH WIND       PRES   REMARKS
ALGONA *       CLOUDY    64  61  88 SW14      29.83R
CLARION *      MOCLDY    64  63  94 S15       29.84S
ESTHERVILLE    CLOUDY    61  59  93 S9        29.80S
FORT DODGE *   CLOUDY    64  57  77 S18G25    29.85R
MASON CITY     PTCLDY    63  60  90 S8        29.84F
FOREST CITY *  CLOUDY    63  59  88 S8        29.83R
WEBSTER CITY * CLOUDY    64  63  94 S21       29.83S
IOWA FALLS *     N/A     64  59  82 S10       29.87F
$$

IAZ007>011-017>019-026>030-037>042-050>054-066-240900-
   NORTHEAST IOWA

CITY           SKY/WX    TMP DP  RH WIND       PRES   REMARKS
CEDAR RAPIDS   CLOUDY    64  54  69 S6        29.88S
CHARLES CITY * CLEAR     64  59  82 S8        29.86S
CLINTON *      CLOUDY    63  51  65 S8        29.92S
DECORAH *      PTCLDY    68  54  60 S9        29.85F
DUBUQUE        PTCLDY    61  50  67 S8        29.90F
MONTICELLO *   CLEAR     66  52  59 SE5       29.89S
OELWEIN *      MOCLDY    64  54  68 S8        29.88S
WATERLOO       CLOUDY    66  53  63 S8        29.86S
$$

IAZ064-065-067-068-078-240900-
   EAST CENTRAL IOWA

CITY           SKY/WX    TMP DP  RH WIND       PRES   REMARKS
DAVENPORT      PTCLDY    64  49  57 S8        29.92S
IOWA CITY      CLOUDY    64  54  69 CALM      29.90F
MT. PLEASANT * CLOUDY    66  54  63 S8        29.90S
MUSCATINE *    CLEAR     66  50  55 SE6       29.90S
QUAD CITIES    PTCLDY    61  49  64 CALM      29.91S
$$

IAZ062-063-075>077-085>089-095>099-240900-
   SOUTHEAST IOWA

CITY           SKY/WX    TMP DP  RH WIND       PRES   REMARKS
BURLINGTON     CLOUDY    65  53  65 S8        29.90F
FAIRFIELD *      N/A    N/A N/A N/A MISG        N/A
FORT MADISON * CLEAR     64  54  68 S7        29.92S
KEOKUK *       CLEAR     68  54  60 S10       29.90F
OSKALOOSA *    MOCLDY    64  55  72 S6        29.89R
OTTUMWA        CLOUDY    65  56  72 S10       29.88S
WASHINGTON *   CLEAR     64  54  68 S7        29.91R
$$

ABBREVIATIONS USED IN REMARKS
   TC - TEMPERATURES IN CELSIUS
  WCI - WIND CHILL INDEX
   HX - HEAT INDEX
  VSB - VISIBILITY
$$





USA.gov is the U.S. government's official web portal to all federal, state and local government web resources and services.